Location: Duac?
(36.9744°N, 30.6500°E)
Time: 01:21:21
(UTC+00:00)

IRS-1A Rocket - Pass Details

Date: 05 August 2024
Orbit: 851 x 931 km, 99.0° (Epoch: 12 September)

Event Time Altitude Azimuth Distance (km) Brightness Sun altitude
Exits shadow 18:39:26 29° 139° (SE) 1,611 5.1 -18.0°
Maximum altitude 18:42:20 59° 72° (ENE) 1,061 4.5 -18.5°
Drops below altitude 10° 18:48:07 10° 355° (N) 2,640 7.4 -19.4°
Sets 18:50:36 0° 351° (N) 3,590 8.2 -19.7°
